Home   Weather   Orlando   Past weeks
Flag for USA

Past Weather in Orlando, Florida, USA — Yesterday and Last 2 Weeks

Now
72 °F

Sunny.


Feels Like: 76 °F
Forecast: 80 / 55 °F
Wind: 10 mph from East

Location: Orlando Executive Airport

Current Time: Mar 24, 2019 at 11:53:44 am

Latest Report: Mar 24, 2019 at 10:53 am


Visibility: 10 mi

Pressure: 30.28 "Hg

Humidity: 57%

Dew Point: 56 °F

Location of OrlandoLocation

Past Weather in Orlando — Graph

°F

Orlando Temperature Yesterday

Maximum temperature yesterday: 79 °F (at 3:53 pm)
Minimum temperature yesterday: 54 °F (at 5:53 am)
Average temperature yesterday: 65 °F

High & Low Weather Summary for the Past Weeks

 TemperatureHumidityPressure
High87 °F (Mar 10, 3:53 pm)100% (Mar 16, 7:53 am)30.28 "Hg (Mar 16, 7:53 am)
Low54 °F (Mar 22, 5:53 am)21% (Mar 21, 3:53 pm)29.93 "Hg (Mar 21, 4:53 pm)
Average68 °F68%30.13 "Hg
* Reported Mar 9 8:53 am — Mar 24 9:53 am, Orlando. Weather by CustomWeather, © 2019

Note: Actual official high and low records may vary slightly from our data, if they occured in-between our weather recording intervals... More about our weather records

Advertising

Orlando Weather History for the Previous 24 Hours

Scroll right to see more
 ConditionsComfort  
Time TempWeatherWind HumidityBarometerVisibility
9:53 am
Sun, Mar 24
67 °FSunny.8 mph71%30.28 "Hg10 mi
8:53 am63 °FPassing clouds.6 mph81%30.27 "Hg10 mi
7:53 am60 °FSunny.6 mph83%30.26 "Hg10 mi
6:53 am59 °FClear.5 mph84%30.25 "Hg10 mi
5:53 am59 °FClear.5 mph84%30.23 "Hg10 mi
4:53 am60 °FClear.6 mph80%30.22 "Hg10 mi
3:53 am60 °FClear.5 mph83%30.22 "Hg10 mi
2:53 am60 °FClear.3 mph83%30.24 "Hg10 mi
1:53 am59 °FClear.No wind84%30.25 "Hg10 mi
12:53 am60 °FClear.5 mph80%30.26 "Hg10 mi
11:53 pm
Sat, Mar 23
60 °FClear.7 mph80%30.26 "Hg10 mi
10:53 pm61 °FClear.7 mph78%30.26 "Hg10 mi
9:53 pm62 °FClear.6 mph67%30.25 "Hg10 mi
8:53 pm66 °FClear.12 mph54%30.23 "Hg10 mi
7:53 pm69 °FClear.13 mph47%30.21 "Hg10 mi
6:53 pm73 °FSunny.15 mph40%30.19 "Hg10 mi
5:53 pm79 °FSunny.6 mph25%30.17 "Hg10 mi
4:53 pm79 °FSunny.8 mph24%30.17 "Hg10 mi
3:53 pm79 °FSunny.6 mph22%30.18 "Hg10 mi
2:53 pm78 °FSunny.3 mph22%30.19 "Hg10 mi
1:53 pm76 °FSunny.6 mph24%30.22 "Hg10 mi
12:53 pm74 °FSunny.5 mph24%30.24 "Hg10 mi
11:53 am73 °FSunny.6 mph26%30.25 "Hg10 mi
Weather by CustomWeather, © 2019

See weather overview